Tracking 29892 objects as of 21-Nov-2024
HD Live streaming from Space Station
objects crossing your sky now

STARLINK-31778

Track STARLINK-31778 now!
10-day predictions
STARLINK-31778 is classified as:


NORAD ID: 59602
Int'l Code: 2024-080B
Perigee: 449.9 km
Apogee: 452.5 km
Inclination: 43.0 °
Period: 93.5 minutes
Semi major axis: 6822 km
RCS: Unknown
Launch date: April 28, 2024
Source: United States (US)
Launch site: AIR FORCE EASTERN TEST RANGE (AFETR)
Your satellite tracking list
Your tracking list is empty




NASA's NSSDC Master Catalog

Two Line Element Set (TLE):
1 59602U 24080B   24326.00112884 -.00004275  00000-0 -95163-4 0  9995
2 59602  42.9996 212.4877 0001929 261.1291  98.9347 15.40689873 33082
Source of the keplerian elements: AFSPC